Theta_e
317 319 321 323 325 327 326 326 327 324 327 324 318 322 318 318 322 318 318 319 318 316 315 316 317 316 318 318 317 316 315 316 317 326 327 317 318 319 316 316 318 322 324 325 323 320 313 312 317 323 328 329 330 331 331 332 332 331 332 332 331 330 330 331 331 330 330 333 333 332 333 334 335 336 336 337 337 337 336 335 334 331 330 328 326 326 326 327 327 326 325 324 322 321 320 319 319
316 318 322 325 326 330 327 326 334 332 329 322 318 321 316 318 320 318 321 320 319 315 315 316 314 315 314 314 314 315 316 316 317 319 318 317 318 318 317 315 315 316 317 320 319 316 313 311 310 314 320 324 327 329 329 330 332 332 332 332 332 332 331 331 331 331 331 332 332 332 333 333 334 334 335 335 336 336 336 335 335 334 333 332 328 326 324 324 325 326 326 325 324 322 320 319 319
315 319 320 323 326 327 328 328 332 332 330 324 323 324 317 318 320 320 320 317 316 314 315 314 313 313 312 313 313 315 315 315 317 317 317 318 316 316 317 314 314 315 314 314 314 313 312 312 311 310 312 315 319 322 324 328 330 331 331 331 331 332 333 332 332 332 332 332 332 332 333 333 333 334 334 334 334 334 335 335 335 335 334 334 331 330 327 326 325 324 324 326 327 324 321 319 317
316 321 321 324 326 326 336 338 334 333 329 324 323 324 322 321 322 320 316 314 315 315 315 314 313 312 313 314 313 313 314 314 316 316 315 314 314 314 314 313 313 313 314 313 313 313 313 313 313 312 311 311 312 314 317 322 326 328 329 330 330 332 332 332 332 333 333 333 332 333 333 333 333 334 334 334 334 334 334 333 333 333 333 334 333 332 331 329 329 327 325 326 329 329 326 322 318
318 321 321 324 326 324 334 333 332 332 324 325 322 321 328 326 322 318 314 314 314 314 315 313 312 311 312 312 311 312 312 313 314 315 311 309 311 311 311 311 312 312 313 313 313 313 313 313 313 313 313 313 312 311 312 315 318 321 324 326 328 329 329 330 331 331 332 333 333 334 334 333 334 334 334 334 334 334 333 333 332 332 332 332 332 332 332 332 331 330 329 327 329 332 332 329 323
320 322 322 323 323 321 326 323 323 326 321 327 324 319 326 323 317 315 313 314 314 315 314 313 312 311 311 310 310 311 312 313 312 312 308 307 309 309 310 310 310 311 311 311 310 311 311 311 312 312 313 313 313 313 313 312 313 315 317 320 323 326 326 326 327 329 330 332 333 333 333 333 334 334 333 333 333 333 333 334 333 333 332 330 330 331 331 332 332 331 330 329 328 331 333 332 330
320 322 322 322 322 320 327 326 322 324 318 319 324 321 319 315 313 314 314 314 315 314 314 313 312 312 311 310 310 310 311 311 310 310 308 307 308 308 308 308 309 309 308 308 308 308 308 309 309 310 310 311 312 312 313 313 313 313 313 315 317 320 323 324 324 325 327 329 331 332 332 333 333 333 333 333 333 333 332 333 334 333 332 331 330 331 330 331 332 332 331 330 328 328 330 331 332
320 321 320 324 329 327 331 327 322 325 317 312 317 318 314 313 314 314 314 314 314 313 313 312 312 313 311 310 310 308 309 309 308 308 308 307 307 307 307 307 307 307 306 306 306 306 306 306 307 307 308 308 309 310 310 311 312 313 313 313 314 315 318 321 323 324 324 325 327 329 330 331 331 332 333 333 333 333 333 333 333 332 332 332 330 330 330 329 330 331 331 330 329 327 326 328 330
320 321 320 324 332 331 329 321 317 320 318 315 314 314 313 314 314 313 313 313 313 312 312 312 312 313 310 308 309 307 307 307 307 308 307 307 307 306 306 306 306 305 305 304 304 304 304 305 304 305 305 305 306 306 307 308 308 310 311 312 313 313 314 316 319 321 323 323 324 325 326 327 328 329 331 331 332 332 333 332 332 331 331 331 331 331 330 328 328 328 329 329 330 329 326 326 327
319 321 319 326 332 328 323 319 320 319 316 316 313 314 314 313 313 312 313 313 312 312 311 311 311 311 309 308 308 307 307 306 307 307 308 307 306 305 304 305 304 304 304 304 304 304 304 304 304 304 304 304 304 304 304 305 305 306 307 308 309 310 311 313 314 316 318 320 322 323 324 324 324 325 327 329 330 331 331 332 332 332 331 331 331 331 331 330 329 328 328 327 328 329 329 327 326
319 320 320 328 331 325 322 322 322 319 317 316 312 314 314 313 314 311 312 313 312 311 310 312 310 308 307 307 307 307 306 306 307 307 307 306 304 304 304 303 303 303 303 304 304 304 304 304 304 304 304 304 304 304 304 304 304 304 304 304 305 306 307 308 310 312 313 315 317 318 320 321 321 322 322 324 326 328 330 330 331 331 331 331 331 330 330 331 330 330 329 327 326 328 330 328 327
318 322 334 339 330 323 324 324 320 318 321 321 315 314 314 313 314 311 311 312 311 311 310 311 310 308 308 306 306 306 306 306 307 306 305 304 303 303 303 303 303 303 303 303 303 304 304 304 304 304 304 304 304 304 304 304 304 304 304 304 304 304 304 305 306 307 309 311 312 314 315 317 318 318 318 319 320 323 325 327 328 329 330 330 330 330 329 329 328 328 329 328 327 328 330 329 327
319 322 337 333 322 322 323 321 320 321 321 320 314 313 315 313 313 311 311 311 310 312 311 311 311 310 308 306 306 305 305 306 306 305 304 303 303 303 303 303 303 303 303 303 304 304 304 304 304 304 304 304 304 304 304 304 304 304 304 304 304 304 304 304 304 305 305 306 307 309 311 313 315 315 316 316 316 317 319 320 322 323 325 327 327 327 327 328 327 326 327 326 325 325 328 330 328
319 318 328 326 320 322 321 319 319 321 318 316 315 313 314 311 312 311 312 314 311 311 311 311 310 311 308 305 305 304 305 306 305 304 303 303 303 303 303 303 303 303 303 303 304 304 304 304 303 303 303 303 303 303 303 303 303 304 304 304 304 304 304 304 304 304 304 304 305 305 307 308 310 312 314 315 316 316 316 316 317 317 318 319 320 321 321 322 323 324 326 325 323 321 324 327 329
317 317 330 331 325 321 318 320 321 324 318 315 315 312 312 311 311 311 312 315 312 310 311 310 310 311 310 307 306 305 305 305 304 304 303 303 302 303 303 303 303 303 303 303 303 303 303 303 302 302 302 302 301 301 301 301 302 302 302 302 302 303 303 303 303 304 304 304 304 304 304 305 306 307 309 311 313 315 316 316 316 316 315 315 315 315 315 315 316 317 320 322 322 322 322 323 327
318 319 334 333 326 321 317 318 321 323 317 313 313 312 313 311 311 312 311 313 311 309 310 311 309 310 310 309 308 305 305 304 303 303 302 302 302 303 303 303 303 303 303 303 303 302 302 301 301 301 301 301 301 301 301 300 301 300 300 300 301 301 301 301 302 302 302 303 303 303 303 304 304 305 306 307 309 311 312 315 316 316 316 316 316 316 315 314 314 313 313 316 319 322 324 324 326
318 325 339 332 324 320 317 319 319 321 318 313 312 312 314 312 310 311 310 311 311 309 309 309 309 310 309 307 307 305 304 304 302 301 301 302 303 303 303 303 303 303 303 302 302 301 301 301 300 300 300 300 300 300 300 300 300 300 300 300 300 300 300 300 300 300 300 301 301 301 302 302 303 303 304 304 305 306 307 309 312 315 316 316 316 316 315 315 314 313 312 314 317 318 322 326 327
321 333 334 324 322 318 318 321 317 317 317 314 312 312 315 314 310 309 310 308 308 308 307 307 307 308 307 306 305 304 303 302 301 301 302 303 303 303 304 303 303 303 302 302 301 301 300 300 300 300 299 299 299 299 299 299 299 300 300 300 300 299 299 299 299 300 299 299 299 300 300 300 301 301 302 302 303 303 304 304 306 309 313 316 316 316 317 317 317 316 315 315 317 317 320 324 326
322 331 326 322 326 317 314 317 313 313 315 313 312 311 313 314 310 310 311 306 305 307 304 304 305 304 304 304 303 303 302 301 301 301 303 303 304 304 303 303 303 302 302 301 301 300 300 300 299 299 299 299 299 298 298 298 298 298 299 299 299 299 299 299 299 299 299 299 299 299 299 299 299 299 300 300 300 301 301 302 302 303 306 311 315 317 319 320 320 319 319 317 316 317 318 322 325
317 322 323 325 324 315 311 313 312 314 314 313 311 311 311 313 311 311 310 306 305 306 304 303 303 302 302 303 302 302 301 301 302 302 303 303 303 303 302 302 301 301 301 300 300 299 299 299 299 299 298 298 298 298 298 298 297 297 297 298 298 298 298 298 298 298 298 298 298 298 298 298 298 298 298 298 299 299 299 300 301 301 302 304 308 314 317 320 322 322 322 321 319 318 318 321 324
314 316 322 321 315 314 314 313 313 313 313 313 312 310 310 311 311 310 309 309 308 305 306 308 306 304 303 302 301 301 301 302 302 303 303 303 302 301 300 300 300 300 299 299 299 298 298 298 298 298 297 297 297 297 297 297 296 296 296 297 296 297 297 297 297 297 297 297 297 298 298 298 298 298 298 298 298 298 299 299 299 300 300 301 302 305 310 315 320 322 323 323 323 322 321 322 323
314 313 316 315 311 314 315 312 314 313 313 313 311 310 310 310 310 310 310 313 313 309 309 310 309 307 305 303 302 301 302 302 303 302 302 301 300 300 299 299 299 299 298 298 298 298 297 297 296 296 296 296 296 295 295 295 295 296 296 296 296 296 296 296 296 296 297 297 297 297 297 297 297 297 298 298 298 298 298 298 298 298 299 299 300 300 303 307 312 317 320 322 323 324 324 324 324
316 314 311 312 312 313 314 313 313 312 312 311 310 311 310 309 310 310 310 312 312 311 311 309 308 307 305 304 302 301 302 302 302 301 301 300 299 299 299 298 298 298 298 298 297 297 297 296 296 295 295 295 295 295 295 295 295 296 296 296 296 296 296 296 296 296 296 296 296 296 296 296 297 297 297 297 297 298 297 297 297 298 298 298 298 298 299 300 303 308 314 318 321 323 324 324 324
316 316 312 312 313 313 313 312 312 312 311 310 310 310 310 310 312 310 309 310 310 311 311 308 307 305 304 303 302 302 302 302 302 301 300 299 299 298 298 298 298 297 297 297 297 296 296 296 296 295 295 295 295 295 295 295 295 295 295 296 296 296 296 296 296 296 296 296 296 296 296 296 296 296 297 297 297 297 297 297 297 297 297 297 297 297 297 298 299 301 305 311 317 321 323 324 325
316 317 312 312 312 312 313 312 312 311 310 310 310 310 310 311 311 309 308 309 309 309 309 307 305 304 303 302 302 301 301 301 301 300 300 299 298 298 298 298 297 297 296 296 296 296 296 295 295 295 294 294 294 294 295 295 295 295 295 295 295 295 295 295 295 295 295 296 296 296 296 296 296 296 296 296 297 297 297 297 297 297 297 297 297 296 296 296 297 298 299 303 310 316 320 323 324
314 315 312 311 312 311 312 312 311 311 310 310 310 311 310 309 309 309 308 308 308 308 307 306 304 303 302 302 301 301 301 301 300 299 299 298 297 297 297 297 296 295 295 295 295 295 295 295 294 294 294 294 294 294 294 294 295 295 295 295 295 295 295 295 295 295 295 295 296 296 296 296 296 296 296 296 296 296 297 297 297 297 297 297 297 296 296 295 295 296 297 298 302 307 315 319 321
312 312 311 311 312 311 311 311 311 311 310 310 311 312 309 307 310 311 307 306 306 306 305 304 304 303 301 301 301 301 301 300 299 298 298 297 296 295 295 295 294 294 294 294 294 294 294 294 294 293 293 293 293 294 294 294 294 295 295 295 295 295 295 295 295 295 295 295 295 295 296 296 296 296 296 296 296 296 296 296 296 297 297 297 296 296 296 295 295 295 295 297 297 300 305 312 318
312 311 313 312 310 311 311 310 311 311 310 310 311 311 308 307 310 313 308 305 306 305 304 303 302 302 301 301 300 300 300 299 298 297 296 296 295 295 294 294 294 294 294 294 294 294 294 294 293 293 293 293 293 294 294 294 294 294 294 294 294 294 295 295 295 295 295 295 295 295 295 295 295 295 295 295 295 295 295 295 295 295 296 296 296 296 296 295 295 295 294 295 296 296 299 304 311
312 311 314 314 314 315 311 309 310 310 311 310 310 312 311 311 311 311 308 305 304 304 304 302 301 301 300 300 300 299 299 298 297 296 296 295 295 295 295 294 294 294 294 294 294 294 294 294 293 293 293 293 293 293 294 294 294 294 294 294 294 294 294 295 295 295 295 295 295 295 295 295 295 295 294 294 294 294 294 294 294 294 294 295 295 295 296 296 295 294 294 294 295 295 296 298 303
313 310 312 317 319 320 311 308 310 309 311 310 310 313 315 315 310 307 307 305 303 303 302 301 300 300 299 299 299 299 298 297 297 295 295 295 295 295 295 294 294 294 294 294 294 294 294 294 293 293 293 293 293 293 293 294 294 294 294 294 294 294 294 294 295 295 295 295 295 295 295 295 295 295 294 294 294 294 293 293 293 293 292 293 293 294 294 295 295 294 294 294 294 295 296 296 298
315 310 316 321 317 323 317 308 310 310 311 310 310 314 314 316 311 306 306 305 304 302 301 300 300 299 299 299 299 299 298 297 296 295 295 295 295 295 294 294 294 294 294 294 294 294 293 293 293 293 293 293 293 293 293 293 294 294 294 294 294 294 294 294 294 294 295 295 295 295 295 295 295 295 295 294 294 294 294 293 292 292 292 292 292 292 293 294 294 294 294 294 294 295 295 295 296
320 313 323 325 315 324 322 307 307 312 312 309 311 315 314 313 310 306 305 304 304 302 300 300 299 299 299 299 299 299 298 296 296 295 294 295 295 294 294 294 294 294 294 293 293 293 293 293 293 293 293 292 293 293 293 293 294 294 294 294 294 294 294 294 294 294 294 294 295 295 295 295 295 295 295 295 294 294 293 293 292 292 292 292 292 292 292 292 293 294 294 294 294 295 295 295 295
325 317 320 325 318 318 318 309 306 308 311 310 311 314 315 313 307 304 304 303 303 301 300 300 299 299 299 299 299 299 298 296 295 295 294 294 294 294 294 294 294 293 293 293 293 293 293 293 293 293 292 292 293 293 293 293 294 294 295 295 294 294 294 293 294 294 294 294 294 294 295 295 295 295 295 295 294 293 293 293 292 292 291 291 291 291 292 292 293 294 294 294 294 294 294 294 294
328 322 318 321 318 313 315 314 308 306 310 312 311 311 312 312 306 303 303 303 301 301 300 300 299 299 299 299 299 299 298 297 296 295 295 294 294 294 294 294 294 293 293 293 293 293 293 293 293 292 292 292 292 292 292 293 294 295 295 294 294 293 293 293 293 293 294 294 294 294 294 294 294 294 294 294 294 294 294 293 293 292 291 291 290 290 291 292 293 294 294 294 294 294 294 294 294
320 320 318 317 315 312 313 314 309 308 311 312 312 312 311 311 308 303 303 302 301 300 301 300 299 299 299 300 299 299 298 298 297 296 295 294 294 295 295 294 294 293 293 293 293 292 292 292 292 292 292 292 292 292 293 294 294 294 294 293 293 293 293 293 293 293 293 293 294 294 294 294 294 294 294 294 294 294 293 293 293 292 292 291 290 290 290 292 293 294 294 294 293 293 294 294 294
314 314 315 313 313 312 311 311 308 307 310 311 310 311 310 310 309 305 303 302 301 300 301 300 299 299 299 299 299 299 299 298 298 296 295 294 295 295 295 294 294 293 293 292 292 292 292 292 292 292 292 292 292 292 293 294 294 294 293 293 293 293 293 293 293 293 293 293 293 293 293 293 293 293 293 293 293 292 292 292 291 291 291 290 290 290 290 291 292 293 293 293 293 293 294 294 294
311 312 313 312 312 311 309 311 308 305 309 312 310 310 310 309 310 307 303 302 300 299 300 299 299 299 299 299 299 299 299 299 298 296 294 295 295 295 295 294 294 293 292 292 292 292 292 292 292 292 292 291 291 292 293 293 293 293 292 292 292 292 292 292 293 293 293 293 293 292 292 292 292 292 292 292 291 291 291 291 291 290 290 289 289 289 289 290 291 291 292 292 293 293 294 294 294
310 312 313 312 312 311 309 309 309 305 308 313 311 310 310 309 309 307 304 302 301 300 300 300 299 299 299 299 299 300 299 298 297 296 294 294 295 295 295 294 293 292 292 291 291 291 292 292 292 292 291 291 292 292 292 292 292 292 291 291 292 292 292 292 292 292 292 292 292 292 292 291 291 291 291 291 291 291 291 292 292 290 289 288 288 288 288 288 289 290 291 292 293 293 293 293 294
311 311 312 314 312 312 312 311 310 307 308 312 312 310 309 309 309 307 304 302 302 302 302 301 301 299 299 299 299 300 299 298 297 296 295 294 294 295 295 294 293 292 291 291 291 292 292 292 292 292 291 291 291 291 292 291 291 291 291 291 291 291 292 292 292 291 291 291 291 291 291 291 291 291 291 291 291 291 291 291 292 291 289 288 287 287 287 288 288 289 290 291 292 292 292 293 294
313 311 312 315 313 313 316 314 312 311 309 310 310 308 307 307 308 308 306 304 304 304 303 303 302 301 300 300 300 300 300 298 297 296 295 294 294 295 294 294 293 292 291 291 291 292 292 292 292 291 291 291 291 291 291 291 291 291 291 291 291 291 291 291 291 291 291 291 291 291 291 291 291 290 290 290 290 290 290 290 291 290 288 287 286 286 286 287 288 289 289 290 291 293 293 293 294
317 315 313 315 314 313 314 313 311 312 313 311 308 308 310 308 307 309 306 303 303 303 303 302 301 301 301 300 300 300 300 298 298 296 295 294 294 295 294 293 292 291 291 291 291 292 292 292 291 291 291 291 291 291 291 291 291 291 291 291 291 291 291 291 291 291 291 291 291 291 291 290 290 290 290 289 289 289 289 289 289 288 287 286 285 286 286 286 287 288 290 290 292 293 294 294 294
321 319 314 314 315 313 312 312 311 313 316 312 307 312 316 312 309 309 307 306 304 302 300 301 301 301 300 300 299 299 299 299 298 297 295 295 295 294 294 293 292 291 291 291 291 291 291 291 291 291 291 291 291 291 291 291 291 290 290 290 290 290 291 291 291 291 291 291 291 290 290 290 290 289 289 289 289 289 289 288 287 287 286 285 285 285 285 286 286 287 289 291 292 293 294 294 294
319 318 315 314 313 312 311 311 311 315 316 309 307 312 314 311 311 311 310 310 308 304 301 300 300 300 299 299 299 299 299 299 298 297 295 295 295 294 294 293 292 291 291 291 291 291 291 291 291 291 291 291 291 290 290 290 290 290 290 290 290 290 290 290 290 290 290 290 290 290 290 289 289 289 289 289 289 289 289 289 288 288 287 285 284 284 284 285 285 286 287 289 291 292 293 294 294
321 314 312 314 311 311 311 309 309 313 311 308 308 309 309 309 310 310 309 309 308 306 304 300 298 299 300 299 299 299 299 299 298 296 295 295 294 294 293 293 292 291 291 291 291 291 291 291 291 291 291 291 290 290 290 290 290 290 290 290 290 290 290 290 290 290 290 289 289 290 289 289 289 289 289 289 289 289 289 289 288 287 286 284 282 282 283 284 284 285 286 288 291 292 293 294 294
320 310 308 309 308 309 308 307 309 309 307 309 310 307 309 312 310 308 306 307 309 308 306 303 299 298 299 299 299 299 299 299 298 296 295 294 294 294 293 292 292 291 291 291 290 290 291 291 291 291 291 290 290 290 290 290 289 289 289 289 289 290 289 289 289 289 289 289 289 289 289 288 289 288 288 288 289 289 289 288 287 286 285 283 282 282 283 283 283 284 285 287 290 292 293 294 295
311 307 309 311 311 310 308 307 309 309 309 311 311 308 312 317 315 312 308 309 311 309 307 305 300 298 298 298 299 299 299 298 297 296 295 294 294 293 293 292 292 291 291 290 290 290 291 291 291 290 290 290 289 289 290 289 289 289 289 289 289 289 289 289 289 289 289 288 288 288 288 288 288 288 288 288 288 288 288 287 287 286 285 284 283 282 281 282 283 283 284 286 289 291 293 294 294
304 309 313 315 314 311 309 309 310 312 314 316 313 309 312 316 316 313 313 316 316 313 310 307 301 298 298 298 298 299 298 298 296 295 295 294 294 293 293 292 292 291 291 290 290 290 290 290 290 290 290 289 289 289 289 289 289 289 289 289 289 289 288 288 288 288 288 288 288 288 288 287 287 287 287 288 288 288 288 287 287 286 286 284 282 280 280 281 282 283 284 286 288 290 292 293 294
306 314 316 316 318 315 313 312 311 315 321 318 310 307 309 313 314 313 314 315 313 312 313 312 306 298 297 299 299 299 298 297 296 295 295 294 293 293 292 292 291 291 290 290 290 290 290 290 289 290 289 289 289 289 289 288 288 288 288 288 288 288 288 287 287 287 287 286 286 287 287 287 287 287 287 287 288 288 288 287 286 285 285 283 281 280 280 280 282 282 283 285 287 289 292 293 294
309 313 316 319 321 321 321 317 314 318 320 311 304 306 309 310 312 311 311 311 309 307 307 308 305 298 297 299 298 298 297 297 296 295 294 294 293 293 292 292 291 291 290 290 290 290 289 289 289 289 289 289 289 288 288 288 288 288 288 288 288 288 287 287 287 287 286 286 285 286 286 286 286 286 286 287 288 288 288 287 286 285 284 283 282 281 281 280 281 282 283 285 286 288 290 292 293
309 312 318 323 323 323 324 320 317 318 317 307 301 306 311 311 312 311 310 311 308 303 301 303 302 300 301 301 299 297 297 296 296 295 294 294 293 293 292 292 291 290 290 290 290 289 289 289 289 289 289 288 288 288 288 288 288 288 288 288 287 287 287 286 286 286 285 285 285 285 285 285 285 285 286 287 287 288 288 287 286 285 284 283 282 281 280 280 280 281 282 283 285 287 289 291 293
307 311 316 320 323 324 323 323 321 318 317 309 302 308 315 314 314 311 306 303 300 299 300 301 301 301 302 301 298 296 296 296 295 294 294 293 293 293 292 291 291 290 290 290 290 289 289 289 289 288 288 288 288 288 288 288 288 288 287 287 287 287 286 286 285 285 284 284 284 284 284 284 284 285 286 287 287 288 288 287 286 285 284 282 281 280 279 279 280 280 281 282 284 287 288 291 293
308 308 312 316 319 321 319 318 317 313 313 311 306 310 314 311 310 307 302 298 296 295 296 297 299 300 300 299 297 295 295 295 295 294 294 293 293 292 292 291 291 290 290 290 290 289 289 289 288 288 288 288 288 288 288 288 287 287 287 287 287 286 286 285 285 284 284 284 284 284 284 284 284 285 286 287 287 287 287 287 286 285 283 281 280 279 278 278 279 280 281 282 284 286 287 290 292
309 307 313 313 311 315 317 315 311 308 311 313 311 311 311 311 310 306 302 301 299 297 295 295 296 298 298 296 296 295 295 295 294 294 293 293 292 292 291 291 291 291 290 290 290 289 289 288 288 288 288 288 288 288 288 287 287 287 287 287 286 286 285 284 284 284 283 283 283 283 283 284 284 285 286 286 287 287 287 286 285 284 283 281 280 279 278 278 278 279 281 282 283 285 287 289 291
312 313 312 308 305 309 314 315 312 309 311 314 313 311 311 314 312 305 301 303 302 300 297 294 293 294 295 295 295 295 294 294 294 294 293 293 292 292 291 291 291 291 290 290 289 289 289 288 288 288 288 288 288 288 287 287 287 287 287 286 286 285 285 284 283 283 283 283 283 283 283 284 284 285 286 286 286 287 287 285 283 283 282 281 280 279 278 277 277 278 280 281 282 284 286 288 290
307 309 306 306 310 311 310 312 314 313 313 314 314 312 312 314 314 310 307 306 306 303 297 294 294 293 292 294 294 293 294 294 294 293 293 292 292 292 291 291 291 291 290 290 289 289 289 288 288 288 288 288 288 287 287 287 287 287 286 286 285 284 284 283 283 283 282 282 282 283 283 284 284 285 285 286 286 286 286 285 283 281 281 281 279 278 277 276 276 277 279 281 282 283 285 287 289
301 302 301 305 310 312 311 310 313 316 315 314 315 315 313 314 317 318 313 311 309 304 297 295 295 293 293 294 293 293 293 293 294 293 292 292 292 291 291 291 291 290 290 289 289 289 288 288 288 288 288 288 287 287 287 287 286 286 286 285 285 284 283 283 282 282 282 282 282 282 283 284 284 285 285 285 285 284 283 283 282 280 280 280 278 277 276 275 275 276 278 279 281 282 284 286 289
304 305 305 304 304 307 310 308 309 314 314 313 314 314 314 313 316 318 315 312 309 304 299 296 294 293 294 293 293 293 293 293 293 293 292 292 292 291 291 291 290 290 290 289 289 288 288 288 288 288 288 287 287 287 287 287 286 286 285 285 284 284 283 283 282 282 282 282 282 282 283 283 284 284 284 284 284 284 281 279 278 278 278 278 277 276 275 274 274 275 277 279 280 281 283 286 288
308 307 308 306 304 307 310 309 308 309 311 313 314 314 312 311 313 314 314 313 308 302 300 296 293 293 293 293 294 294 293 293 293 293 292 292 292 291 291 291 290 290 289 289 288 288 288 288 288 288 287 287 287 287 287 286 286 285 285 285 284 284 283 283 282 282 282 282 282 283 283 283 283 283 283 283 282 282 281 278 276 276 277 276 275 274 274 274 274 275 277 279 280 281 282 285 286
Wind_Speed
4 4 2 2 1 0 1 1 1 3 4 3 3 1 1 1 2 2 0 1 1 5 14 14 12 15 15 15 18 18 15 7 3 4 4 1 3 8 9 8 7 6 6 6 6 6 5 4 2 0 1 1 1 2 2 2 2 3 3 4 4 4 5 6 7 8 9 10 11 11 12 15 14 13 14 15 14 14 14 13 15 16 14 13 12 12 13 13 13 14 16 18 19 19 18 20 21
5 3 4 3 0 1 2 1 1 3 5 3 2 1 1 2 1 4 5 3 5 14 26 29 26 25 21 21 18 18 18 13 10 10 6 2 2 5 9 9 8 6 6 6 7 7 7 5 3 3 3 4 4 4 5 5 5 5 5 5 5 5 6 6 7 8 9 11 12 11 12 15 14 13 14 15 15 16 16 14 14 17 16 16 15 14 15 14 14 15 15 17 18 19 18 19 20
4 3 3 2 1 1 0 3 2 2 4 2 3 3 1 1 3 6 7 4 17 26 25 22 19 14 11 14 12 10 9 9 11 9 6 4 1 5 9 8 8 6 6 6 7 8 8 6 5 4 4 5 7 7 8 8 8 8 7 7 6 6 6 7 8 9 10 11 12 13 13 15 14 14 14 14 15 16 17 15 15 17 16 17 17 16 17 17 16 16 16 16 16 17 18 19 19
3 4 3 3 3 2 2 4 2 4 3 3 2 4 2 4 6 7 3 5 16 21 14 13 11 11 12 11 8 9 8 8 9 5 6 7 5 6 7 7 7 6 6 6 7 8 8 8 7 5 4 4 6 7 8 9 10 10 10 9 9 9 8 8 8 9 10 11 12 13 13 14 15 15 15 15 16 16 16 16 18 19 18 18 18 17 17 18 18 18 17 16 16 16 17 18 19
3 3 2 3 3 1 3 3 2 4 2 4 2 4 4 5 7 5 2 6 8 13 11 12 7 9 17 13 5 4 5 7 8 7 9 8 5 5 5 6 7 7 7 7 8 8 8 8 8 8 7 6 5 5 7 8 10 11 12 13 13 12 12 11 11 11 10 11 12 13 14 14 15 16 16 15 17 18 16 17 18 20 19 19 20 19 19 18 18 18 17 17 17 17 17 18 19
3 3 2 3 3 2 3 2 3 2 4 5 3 4 4 6 7 5 8 9 9 13 13 14 12 14 16 14 13 8 5 7 9 9 10 7 4 3 4 5 6 6 6 8 9 9 9 9 9 9 9 10 9 8 6 7 8 9 11 13 14 15 15 14 14 14 13 12 11 13 13 14 14 15 16 16 18 19 19 19 18 19 19 20 21 20 20 20 20 19 18 18 18 18 19 19 19
2 4 3 5 3 2 3 3 4 2 2 5 4 4 5 6 9 10 9 7 9 11 13 18 22 20 10 6 11 12 10 9 10 9 8 6 3 2 3 4 4 5 7 9 10 10 10 10 9 9 9 9 10 10 9 8 8 8 9 10 13 14 15 16 16 16 16 15 13 13 13 13 14 15 16 17 18 18 20 20 19 19 19 19 20 21 21 21 22 22 20 19 19 19 20 20 19
2 3 2 4 2 4 4 3 3 2 1 3 3 4 3 6 11 9 4 3 5 7 16 22 18 12 4 6 7 11 14 11 11 9 6 5 2 2 3 4 5 7 9 10 11 12 12 12 12 12 11 10 10 9 10 10 9 9 8 8 10 12 13 15 16 17 18 18 17 16 16 15 15 15 15 16 17 18 19 20 20 20 20 20 20 21 21 21 22 23 23 21 21 21 21 21 21
1 1 1 3 2 3 3 2 1 2 2 2 1 2 2 6 9 7 5 4 7 10 14 11 4 5 9 13 12 12 14 12 10 8 6 3 1 1 2 4 6 8 9 10 12 12 13 14 14 15 15 14 14 13 13 12 11 11 10 9 9 10 11 13 15 16 18 19 19 19 19 19 18 18 17 17 18 18 18 19 20 21 22 21 22 22 22 22 22 24 24 23 22 23 24 23 23
0 1 1 2 3 4 3 1 0 1 2 2 2 2 3 5 5 8 9 6 8 10 7 5 5 14 16 13 11 12 13 11 9 7 5 4 3 3 3 5 7 9 9 10 11 12 13 14 14 15 15 16 16 16 15 15 14 14 13 13 12 11 10 11 12 14 16 18 19 20 20 21 21 21 21 20 20 20 19 19 19 20 21 22 22 23 23 23 23 24 25 25 25 25 25 25 25
1 2 2 4 4 3 3 3 2 2 3 4 3 1 3 7 10 11 11 9 7 11 10 7 12 21 17 8 9 12 13 11 10 7 6 5 5 5 5 7 8 8 9 10 11 11 12 13 13 14 14 14 14 14 14 14 14 14 14 14 14 13 12 11 11 12 14 16 18 20 21 22 22 22 22 23 23 22 22 21 19 19 20 21 22 22 23 23 23 24 24 25 25 26 26 26 26
0 1 3 4 3 3 4 4 4 3 5 4 1 2 4 8 11 9 11 11 8 12 8 5 15 20 11 5 10 12 14 12 9 7 6 7 6 6 6 7 8 8 9 9 9 10 11 12 12 13 13 13 13 13 13 13 13 13 14 14 14 14 14 14 13 12 12 13 16 18 20 22 23 23 24 24 24 24 24 24 23 23 22 22 22 22 23 24 25 25 25 24 25 26 26 27 28
1 2 4 3 2 3 4 5 4 1 4 2 2 2 4 4 9 13 14 10 7 8 3 9 21 16 6 6 13 15 14 11 9 8 8 7 6 6 6 6 6 6 7 7 7 9 10 11 12 13 14 14 13 14 14 13 14 13 13 14 14 14 14 14 14 14 14 13 13 15 17 20 22 24 25 25 25 25 25 26 26 26 25 25 24 24 24 25 27 27 27 25 26 28 28 28 28
3 2 4 3 1 3 5 4 3 3 1 4 3 1 5 4 8 15 15 9 3 6 8 16 21 9 7 10 11 17 16 12 11 9 8 7 6 5 4 4 4 4 6 6 7 9 10 12 13 14 14 15 15 15 15 15 15 15 15 14 15 15 15 15 15 15 15 15 15 15 15 16 19 21 24 26 26 26 26 27 27 27 27 27 28 27 27 28 29 29 29 27 27 30 30 30 30
4 2 4 3 2 1 3 2 3 5 4 4 1 4 9 8 8 10 9 7 4 10 13 16 15 4 10 13 12 21 18 14 13 9 9 8 7 5 3 3 3 3 5 7 8 10 11 12 13 14 14 14 15 15 16 16 16 16 16 16 15 16 16 16 16 17 17 17 17 17 17 16 17 18 20 23 25 27 28 28 28 28 29 28 28 29 29 30 30 31 31 30 30 31 31 32 33
4 3 4 3 2 1 2 2 3 4 4 4 4 9 9 6 8 6 4 8 10 13 12 12 11 5 13 17 15 24 20 15 13 10 11 9 7 5 3 2 2 3 6 7 9 10 12 13 13 14 14 15 15 16 16 16 16 16 16 16 17 17 17 17 17 18 18 19 19 19 19 19 19 18 19 19 21 23 26 28 29 29 29 29 29 30 30 31 32 33 33 32 32 32 32 34 34
3 3 5 3 2 2 3 4 4 4 4 4 6 8 5 4 5 6 6 11 14 12 10 8 9 8 16 17 17 23 19 16 15 13 13 10 8 5 4 2 1 3 5 7 9 11 11 12 13 15 16 17 18 18 18 17 17 17 17 17 17 18 18 18 18 19 19 20 20 21 21 21 21 21 21 21 21 21 22 24 27 29 30 30 31 31 32 33 33 34 34 33 32 33 34 34 34
2 3 4 1 2 3 4 7 7 5 4 6 7 9 9 5 7 12 9 10 14 13 10 10 10 13 18 18 19 21 18 18 17 16 14 11 9 6 5 2 2 2 5 7 9 11 12 14 15 18 19 20 21 21 21 21 21 20 20 19 19 18 18 18 19 20 20 21 21 22 22 23 23 24 23 24 23 23 23 22 23 25 28 30 30 30 30 31 31 32 32 32 32 32 34 35 35
3 3 3 2 4 3 3 6 8 4 5 8 6 8 10 9 14 17 8 6 13 12 9 12 16 18 19 20 21 20 19 19 18 17 15 11 9 7 4 2 2 3 5 7 9 11 13 15 17 20 21 23 23 23 23 23 23 22 22 21 20 20 19 19 18 19 20 20 21 22 22 23 24 25 25 26 25 25 25 25 25 24 25 27 28 29 29 29 29 29 30 30 32 32 34 35 36
2 4 3 4 6 3 3 5 8 5 7 9 6 8 8 11 17 15 10 8 8 7 12 14 17 23 22 22 22 21 21 18 17 15 13 10 7 5 3 1 1 3 5 7 10 12 15 17 20 22 23 24 24 24 24 24 23 23 22 22 22 22 21 21 20 20 20 20 21 21 22 23 24 25 26 27 27 28 27 27 28 27 27 26 27 28 29 29 29 29 29 29 31 32 35 36 37
0 3 2 6 6 3 4 7 6 5 9 10 8 7 7 13 16 15 14 9 4 12 22 18 19 27 26 25 24 21 20 18 15 12 10 8 6 4 2 2 3 4 7 9 11 14 17 19 21 23 24 24 25 25 25 24 23 23 22 22 22 22 22 22 22 22 22 22 22 23 23 23 24 25 26 27 28 29 30 29 29 30 30 29 27 28 29 30 30 31 30 29 29 30 33 35 36
2 1 2 6 8 3 6 9 6 8 9 8 8 7 8 12 13 18 20 11 6 16 26 20 19 26 25 25 24 21 20 17 14 12 10 8 5 4 3 3 4 6 7 10 13 16 18 20 21 22 23 23 24 24 24 24 23 24 24 23 23 22 22 23 23 23 23 24 24 25 26 25 25 25 26 27 28 30 31 32 31 31 31 32 30 30 29 29 30 31 32 31 30 30 31 32 32
2 2 2 5 6 4 8 11 9 10 11 10 9 7 9 11 9 18 25 16 8 12 21 18 18 24 23 24 24 22 20 17 15 12 10 7 5 4 3 3 4 6 8 11 13 16 18 19 21 21 22 22 23 23 23 23 23 24 24 24 24 24 24 24 24 24 25 25 25 26 27 28 28 28 28 28 29 30 31 32 33 33 33 33 32 32 32 31 31 31 32 33 33 32 32 31 31
1 2 1 3 3 3 8 10 10 11 12 11 9 7 9 10 7 14 23 18 10 9 17 18 21 25 23 24 23 21 20 17 15 12 10 8 5 4 2 2 3 5 7 10 13 15 17 19 20 21 21 22 23 23 23 23 23 24 24 24 25 25 25 26 26 26 26 26 27 27 28 29 29 30 30 30 31 31 32 32 33 34 35 34 33 33 33 33 33 32 32 33 34 35 35 33 32
2 2 1 2 2 2 6 7 9 11 10 8 6 6 7 9 8 10 18 17 11 14 18 21 25 26 24 24 23 21 20 17 15 13 11 8 6 4 2 1 3 5 7 10 12 14 16 18 19 20 21 21 22 22 23 23 24 24 24 25 25 26 27 27 28 28 28 28 29 30 30 31 31 31 32 32 32 32 33 34 34 33 34 35 35 34 34 34 34 34 34 33 34 36 37 36 34
1 2 5 3 2 2 5 8 9 10 9 7 5 3 4 7 6 6 13 15 14 18 21 25 27 27 25 24 22 21 20 17 15 13 11 8 6 4 3 2 4 5 7 9 12 13 15 17 18 19 20 20 21 22 23 23 24 25 25 26 27 27 28 29 29 30 30 31 31 32 32 33 33 34 34 33 34 34 34 35 36 35 34 34 35 36 35 35 35 35 35 35 35 35 37 38 37
4 5 8 8 7 7 5 9 10 11 8 6 5 4 3 6 5 4 12 18 19 23 25 27 27 27 27 24 23 21 19 17 15 13 11 9 7 5 4 4 4 5 6 8 10 13 15 16 17 18 19 20 21 22 23 24 25 26 26 27 27 28 29 30 30 31 32 33 34 35 36 37 37 37 37 36 37 37 36 35 36 36 36 34 34 36 37 36 36 35 35 36 36 36 37 37 38
7 7 9 9 9 8 6 6 9 9 5 6 4 1 0 5 3 7 15 23 24 27 28 28 28 27 27 25 24 21 19 17 15 13 11 9 8 6 4 4 3 3 5 7 10 12 14 16 17 18 19 20 21 22 23 24 25 26 27 28 28 29 30 30 31 32 32 33 35 36 37 39 40 41 41 40 40 39 39 38 37 37 37 36 34 35 37 38 37 37 36 35 36 37 38 38 37
5 5 6 7 9 7 4 2 6 6 3 5 3 2 2 5 7 8 17 27 27 27 28 28 29 27 27 26 24 21 19 17 15 13 11 10 8 5 4 3 2 3 5 8 10 12 14 16 17 17 19 20 21 22 23 24 25 26 27 28 29 29 30 31 31 32 33 33 34 36 37 39 40 41 42 43 43 42 41 40 39 38 38 38 36 34 36 38 38 38 37 37 37 37 38 39 38
3 3 3 4 8 6 3 2 2 4 3 6 4 3 6 9 11 8 17 29 29 28 29 30 30 29 28 27 24 22 20 18 17 14 12 10 7 4 3 1 2 3 6 8 10 12 14 16 16 17 19 20 21 22 23 25 26 27 29 29 30 30 31 31 32 32 33 33 34 36 37 38 39 40 41 42 43 43 43 41 41 40 39 39 38 35 34 36 38 39 38 38 38 38 38 39 38
1 1 2 3 4 4 5 2 3 3 3 6 6 4 8 8 11 11 21 30 31 30 31 32 32 31 30 28 26 23 21 19 16 14 13 10 7 4 2 0 2 4 7 8 10 12 14 15 16 17 19 20 21 23 24 26 27 28 30 30 30 31 31 31 32 32 33 33 34 35 36 38 39 40 42 43 43 43 43 42 41 41 40 40 39 35 32 33 35 38 38 38 39 39 39 39 39
3 2 3 3 1 5 9 4 6 4 2 5 7 4 9 8 9 14 25 30 32 32 31 33 33 33 32 29 27 24 21 19 17 15 14 11 9 5 2 1 3 5 7 9 10 12 14 15 17 18 19 21 22 23 25 26 28 29 30 31 31 31 31 31 32 32 33 33 34 35 36 38 39 41 43 44 44 43 42 43 42 42 42 41 39 36 33 31 32 35 37 37 40 41 40 40 40
3 1 2 4 2 4 7 4 4 3 1 2 4 4 8 6 4 13 26 31 32 29 28 32 34 34 34 31 29 26 23 21 19 18 16 13 10 6 4 3 4 6 7 9 11 12 14 16 17 18 20 21 22 24 25 26 29 30 31 31 31 31 31 32 32 33 33 34 35 36 37 38 39 41 43 45 45 44 42 42 42 41 41 41 40 37 35 32 31 33 36 37 39 41 41 41 41
4 3 1 4 4 3 5 5 4 1 2 3 4 5 11 9 0 11 25 31 31 26 28 33 34 34 35 33 30 27 26 24 23 21 18 15 12 8 6 5 5 7 8 9 11 13 15 16 17 18 20 22 23 24 26 28 30 32 32 31 31 31 31 32 33 33 34 35 36 37 38 39 41 42 44 45 45 45 43 42 41 40 40 41 40 38 35 32 31 32 34 37 39 40 41 41 42
3 3 2 4 3 4 5 6 3 2 1 4 3 5 15 15 5 11 23 29 30 29 30 32 33 34 35 34 33 30 28 26 25 23 20 17 13 10 9 7 7 8 9 10 11 13 14 16 17 19 20 22 23 25 27 30 32 32 32 31 31 32 33 34 34 35 35 36 36 38 39 40 42 43 45 46 46 46 45 44 43 41 39 38 38 39 37 32 31 31 34 37 39 40 40 41 41
5 5 4 4 5 6 6 6 4 1 3 7 7 8 13 16 11 10 20 29 31 30 27 26 28 32 34 35 35 32 30 28 26 24 22 18 15 12 11 10 8 8 9 9 11 13 15 16 18 19 21 23 24 26 30 32 34 34 33 33 33 34 35 35 35 35 35 36 36 38 40 41 43 45 46 46 46 46 46 45 44 43 41 38 36 38 38 34 31 33 35 37 38 39 40 40 39
3 3 4 5 5 7 6 4 5 1 2 8 8 8 12 16 15 11 18 25 25 24 23 24 28 32 35 37 37 35 32 28 26 26 23 20 17 15 14 12 9 9 8 9 11 13 15 17 19 21 22 23 26 29 32 33 34 35 35 35 36 36 36 36 36 35 35 36 36 38 40 42 44 45 47 47 46 45 45 46 46 45 43 39 36 35 36 36 33 33 36 36 36 38 41 41 37
2 3 4 5 5 8 9 4 5 1 3 6 5 6 11 14 16 13 12 16 19 25 26 27 31 34 36 38 39 38 33 28 28 29 26 22 19 17 15 13 10 9 8 9 11 13 15 18 20 21 23 24 27 29 31 32 33 34 34 35 36 37 37 37 37 37 37 37 38 39 41 43 45 46 47 47 47 47 47 47 46 45 43 38 35 33 33 35 35 34 34 36 36 37 40 41 37
2 2 2 5 4 4 8 4 4 2 2 6 6 5 10 13 17 17 12 15 22 33 36 36 37 36 38 40 40 40 35 31 32 32 29 25 21 18 17 15 11 9 8 9 11 14 16 18 20 22 23 25 27 28 29 30 31 32 33 34 36 37 37 38 39 38 38 39 40 41 43 44 46 47 48 48 48 48 47 47 46 44 42 37 34 33 31 31 34 34 34 36 37 38 39 40 37
4 3 2 5 4 1 4 4 5 4 2 6 8 7 8 11 17 18 14 20 26 32 37 39 38 38 41 43 43 44 41 38 36 35 31 26 22 20 18 15 11 8 7 9 11 14 17 19 21 22 24 25 26 27 28 29 31 32 33 34 35 36 37 38 39 39 39 40 41 42 43 44 46 47 48 48 48 47 46 45 45 44 41 38 36 35 32 30 31 33 35 36 37 40 40 39 38
4 5 6 6 6 5 6 3 5 6 4 4 7 8 6 7 13 13 7 12 19 23 27 30 34 36 37 38 41 44 43 41 39 37 33 28 24 22 19 16 10 7 7 9 12 14 17 19 21 22 23 24 26 27 28 29 31 32 33 35 35 36 37 38 40 41 41 42 42 43 43 45 46 48 48 48 47 47 46 45 44 43 43 43 42 40 37 33 30 30 32 35 36 39 40 40 40
5 5 9 9 8 7 5 4 6 5 4 4 6 6 6 2 7 11 5 3 10 12 14 22 30 32 32 36 40 41 41 41 39 37 34 29 25 23 20 15 10 7 7 10 12 14 17 18 20 22 23 24 26 27 28 30 31 33 34 36 37 39 40 40 41 43 44 44 45 45 45 46 47 48 49 49 48 48 47 44 42 43 43 44 44 43 40 37 35 31 29 32 35 37 39 41 43
4 4 6 7 4 2 2 3 3 1 4 3 4 2 8 3 4 11 8 6 11 8 9 18 26 29 34 39 40 40 42 42 39 35 33 30 27 24 20 14 9 7 8 10 12 14 16 18 19 21 23 25 26 26 27 30 31 32 34 35 36 38 40 41 42 43 44 45 46 46 46 47 47 49 49 49 49 49 49 46 43 42 42 41 40 40 39 37 38 36 31 29 32 35 37 41 43
3 4 4 5 4 2 3 2 0 3 3 4 3 4 7 7 6 10 7 8 14 11 10 14 20 28 36 39 38 40 44 44 40 36 33 30 27 24 20 14 9 7 8 9 11 14 16 18 20 21 24 25 25 26 27 29 31 32 33 34 35 37 39 41 42 43 44 45 47 47 48 48 47 49 50 50 50 50 50 49 46 43 42 40 38 40 41 38 38 38 35 32 31 32 34 38 41
5 4 5 5 4 4 4 3 2 2 3 6 4 6 5 9 5 3 2 4 12 14 14 13 17 29 34 35 37 40 43 43 40 37 33 30 27 24 20 14 9 7 7 9 11 14 17 19 20 22 23 24 25 26 27 29 30 31 33 34 36 37 38 40 42 43 44 45 47 48 48 49 48 49 50 51 51 50 50 49 47 44 42 42 42 44 44 41 40 40 38 35 33 31 32 34 38
3 4 4 4 4 4 3 2 1 2 2 9 7 7 4 8 4 3 1 3 10 12 12 11 16 27 31 32 36 39 41 42 40 37 33 30 27 23 19 13 9 8 7 9 11 14 17 19 20 22 23 24 24 26 28 29 29 31 32 34 36 37 39 40 42 44 45 46 48 49 50 50 50 50 51 51 50 50 50 49 48 45 42 41 41 41 41 41 40 40 39 37 35 34 33 33 36
3 5 4 4 4 4 3 2 3 3 3 10 9 10 8 6 3 5 4 5 8 8 8 8 11 20 26 31 37 39 41 42 40 36 32 29 26 23 18 13 9 7 7 9 11 14 17 19 20 21 22 23 25 26 28 28 29 31 32 34 36 37 39 41 43 44 45 46 48 50 51 51 51 51 51 52 51 50 50 50 49 47 43 41 40 39 41 42 41 40 40 39 37 35 34 34 35
4 4 4 4 4 3 4 4 4 1 6 7 5 8 9 8 6 4 6 7 7 7 8 8 9 16 26 33 37 40 42 43 41 36 33 30 27 23 18 13 10 7 7 9 12 14 16 18 20 21 22 23 25 27 27 29 30 31 33 35 36 37 38 40 42 44 45 46 48 50 51 52 53 52 52 52 52 51 51 51 50 48 45 42 41 42 44 44 41 39 40 40 39 37 35 34 34
4 4 4 3 4 4 3 3 0 3 7 3 1 3 5 11 10 8 10 11 11 10 10 11 10 16 27 33 37 39 41 43 41 38 34 32 28 23 18 13 10 7 7 9 12 14 16 18 20 21 22 23 25 27 28 30 31 32 33 35 36 37 38 39 41 43 44 45 47 49 51 52 53 53 53 53 53 52 52 51 50 49 47 44 42 42 43 41 38 38 39 39 40 39 36 35 34
5 4 4 3 1 1 4 4 2 5 6 2 3 3 4 9 8 12 16 17 17 12 12 18 16 17 25 31 36 38 41 43 42 39 36 33 29 23 18 14 10 7 8 10 12 14 16 18 20 21 22 24 25 27 29 30 31 33 34 35 36 37 38 39 41 42 44 45 46 48 50 51 51 52 53 53 53 53 53 52 50 49 48 46 44 42 42 39 36 35 36 37 40 40 37 35 34
4 4 4 5 4 4 4 4 4 6 6 3 3 2 4 4 3 8 11 13 14 11 14 20 19 19 22 26 32 37 40 43 41 39 36 32 28 22 18 14 10 8 8 10 12 14 17 19 20 21 23 24 26 27 29 31 32 33 34 35 36 37 38 40 41 42 43 44 46 48 49 49 49 51 52 52 53 52 53 52 50 49 48 47 45 43 41 39 36 35 36 38 40 41 39 37 35
2 2 4 3 4 5 3 3 4 2 6 5 3 4 6 4 4 6 5 7 7 7 11 14 15 19 20 24 32 36 40 42 41 39 36 31 26 22 18 14 10 8 9 11 13 15 17 19 20 22 23 24 26 28 30 32 33 34 34 35 36 37 39 40 41 42 43 44 45 47 49 49 49 50 51 52 53 53 53 53 51 49 48 48 47 43 42 40 38 37 38 40 41 40 40 39 35
2 2 3 4 4 5 2 3 2 4 3 6 3 6 7 4 6 6 4 4 5 4 7 9 13 17 21 27 32 36 40 43 42 40 36 31 26 22 18 14 10 10 10 11 13 15 18 19 21 22 23 25 27 29 31 32 33 34 35 36 37 38 39 40 42 43 44 45 46 46 48 48 48 49 50 52 53 53 54 53 52 50 48 47 47 44 42 41 39 39 40 40 40 40 41 41 36
5 3 5 3 2 4 3 1 3 2 4 6 3 9 11 4 6 3 3 4 10 7 6 7 10 15 21 27 32 36 40 42 41 38 34 29 26 22 19 14 11 10 11 12 13 15 17 19 21 23 24 26 28 29 31 32 33 35 36 36 37 38 39 41 42 43 45 46 47 47 47 48 48 48 50 52 52 53 54 53 52 51 48 46 46 44 42 41 40 39 39 39 40 40 41 41 37
5 3 3 2 3 1 2 2 2 2 3 7 5 8 11 8 6 5 3 8 12 9 7 7 8 14 22 26 29 34 38 40 40 37 33 30 26 22 18 14 12 11 11 12 14 16 17 19 21 23 25 26 28 30 31 33 34 35 37 37 38 39 40 41 42 44 45 46 47 47 47 48 48 49 50 52 53 54 54 53 52 51 49 45 44 43 41 40 40 37 36 37 39 40 41 42 38
2 1 2 1 3 4 3 3 3 3 4 7 6 7 12 10 6 7 9 11 12 9 9 10 11 18 25 27 30 35 39 42 41 38 34 30 26 22 18 14 13 11 11 12 14 16 17 19 21 23 25 26 28 30 31 33 35 36 37 38 39 40 41 42 43 44 45 46 47 47 48 49 49 49 50 51 53 54 53 53 52 51 49 45 43 42 40 39 38 36 35 37 38 39 40 42 39
3 2 2 2 1 2 1 2 2 3 4 6 3 6 16 11 5 9 11 10 11 11 11 11 14 22 28 29 33 38 41 43 41 38 34 30 25 21 18 15 12 11 11 13 15 16 17 19 21 23 25 26 28 30 32 34 35 36 38 39 40 41 42 43 44 45 46 47 47 47 48 49 49 50 50 51 53 53 51 51 52 52 49 44 40 39 38 37 38 37 37 39 40 39 41 41 39
7 7 7 7 6 3 2 4 3 3 5 5 3 5 17 9 5 7 9 7 9 11 12 11 15 25 28 30 35 39 42 43 41 37 33 29 25 21 18 15 12 11 11 13 15 16 18 20 21 23 24 26 29 31 33 35 36 37 39 40 41 42 43 44 45 46 47 47 48 48 48 49 50 50 50 50 52 52 52 50 50 51 47 41 38 36 35 34 36 38 37 38 40 40 41 41 39
Wind_Direction
58 85 116 146 194 156 280 235 95 5 65 85 328 39 134 235 192 149 48 293 10 47 74 88 92 94 96 101 106 89 63 56 62 88 125 198 324 333 352 360 355 345 337 336 327 330 341 350 343 245 213 245 247 243 243 250 242 261 274 276 292 297 296 302 300 308 305 290 289 299 298 291 293 294 289 287 287 285 287 292 295 301 304 302 299 294 294 296 292 284 279 277 275 273 272 271 271
37 81 117 125 293 265 262 21 81 353 52 77 295 166 260 339 101 168 200 202 115 99 90 89 86 86 93 96 92 76 56 51 71 89 89 55 253 324 353 354 350 351 343 337 331 333 335 337 328 294 263 249 245 250 249 250 250 255 262 265 271 274 276 283 286 284 287 285 285 288 287 287 290 289 284 284 286 283 281 282 287 295 299 299 300 297 295 297 299 297 289 281 279 276 272 270 270
30 88 128 142 65 107 189 34 84 67 69 114 269 262 326 98 181 205 205 130 111 111 98 90 80 73 85 80 58 60 66 60 76 89 61 29 304 350 352 348 348 353 350 344 342 341 341 343 338 317 286 265 254 250 247 250 255 257 257 258 261 267 273 273 277 279 279 278 278 280 282 284 286 282 278 279 281 281 281 283 285 288 290 293 297 298 297 299 300 302 297 287 283 280 275 272 269
58 95 108 164 124 91 65 47 123 115 111 179 251 270 258 172 200 220 193 86 122 127 109 95 74 59 74 75 59 66 71 59 62 89 66 45 47 16 351 347 343 337 335 338 344 341 345 349 343 336 317 288 268 259 253 252 254 255 256 255 257 262 266 266 270 278 279 277 276 278 279 280 282 281 278 280 281 279 281 287 289 287 286 288 290 290 291 297 298 300 299 292 285 282 280 278 274
88 104 95 173 155 114 88 75 109 100 176 183 159 255 252 197 204 222 92 68 137 153 132 111 93 78 73 60 58 67 68 77 78 95 86 66 55 24 352 341 329 321 328 341 350 348 350 349 345 341 336 328 308 285 268 260 257 256 256 253 255 256 257 259 261 266 269 275 278 278 278 278 281 280 279 280 279 277 275 276 281 285 287 289 290 289 288 289 291 294 294 291 284 280 279 278 277
110 128 102 131 127 128 115 104 125 116 222 166 141 242 238 209 205 159 99 78 107 134 130 114 116 106 82 65 64 68 96 106 104 101 92 81 59 20 347 338 326 329 353 7 8 7 7 1 354 348 343 339 333 327 310 288 274 265 262 258 256 256 256 256 257 261 263 270 278 279 277 279 282 279 278 277 276 278 276 273 275 279 282 285 289 290 288 286 285 286 286 285 281 277 276 277 275
136 152 117 120 96 66 107 129 162 173 210 167 157 201 211 217 189 142 111 92 95 113 120 116 117 104 85 93 70 72 108 120 113 106 100 93 75 32 2 2 356 18 39 39 36 35 32 27 21 12 3 353 344 338 332 323 309 291 278 269 264 261 260 258 258 261 263 267 273 278 278 279 282 279 278 278 278 278 277 277 276 276 277 279 282 285 287 287 285 285 285 283 279 275 273 275 274
144 171 147 127 51 35 96 116 177 176 164 213 186 179 198 195 178 151 115 114 109 111 123 123 112 88 77 133 101 95 113 119 116 115 116 106 85 29 13 26 32 51 57 56 55 53 51 47 45 41 35 28 17 6 354 345 336 327 311 293 280 271 265 261 260 261 263 265 267 272 275 277 279 279 278 278 279 277 275 275 273 273 276 276 276 280 284 284 283 285 288 285 280 278 275 272 271
132 180 175 114 72 49 68 73 153 207 260 260 222 201 152 166 179 149 91 75 117 127 138 143 85 92 117 109 110 117 117 120 126 133 132 130 160 66 51 60 58 68 68 64 63 59 58 55 52 50 47 44 38 34 26 18 7 358 348 334 316 298 282 271 265 263 263 265 266 268 270 272 275 276 276 277 278 276 274 273 272 272 273 274 273 274 277 277 278 279 283 286 282 280 278 275 270
27 59 142 94 81 66 54 79 224 232 257 280 275 234 136 159 158 122 112 95 125 126 143 174 113 127 126 106 115 128 128 134 147 159 162 162 138 113 94 84 77 77 73 67 65 60 59 55 52 49 46 43 40 38 33 31 26 19 12 3 354 339 319 299 282 272 268 266 267 267 268 270 272 272 273 274 276 275 275 274 274 274 272 273 275 275 275 275 273 272 276 279 281 280 278 277 273
342 27 92 82 78 107 163 193 245 255 283 317 302 273 118 143 117 101 113 114 131 123 125 132 121 127 118 104 130 140 144 153 170 177 165 145 126 119 102 91 86 78 71 64 59 56 54 49 46 42 38 36 32 31 28 26 23 20 17 12 8 1 352 338 318 298 283 274 270 269 269 270 272 272 271 271 272 272 272 272 274 276 274 273 273 276 278 277 273 271 273 273 275 277 276 276 275
331 6 71 87 111 172 181 164 194 250 314 340 21 77 99 133 117 111 120 118 137 134 134 154 143 133 109 110 143 152 160 168 182 176 156 145 135 119 104 94 85 76 69 60 53 48 44 39 35 31 27 23 20 17 14 12 11 9 6 4 1 358 356 351 343 331 313 295 283 275 272 270 270 271 271 271 270 270 269 270 270 271 272 272 271 272 274 274 274 274 275 275 273 271 272 273 274
99 150 83 92 144 148 136 137 178 213 338 293 187 83 84 120 123 131 125 113 140 144 144 165 152 137 106 144 150 163 171 176 179 168 160 152 144 124 111 99 84 74 64 55 46 39 33 28 23 19 14 10 7 4 360 357 355 353 351 348 346 345 343 341 339 336 331 324 310 295 283 275 272 270 271 271 270 269 268 268 268 268 268 268 268 269 269 269 271 272 275 276 274 271 269 269 270
89 155 96 115 91 120 136 125 169 142 186 246 233 94 86 88 129 138 126 110 127 127 125 152 154 134 129 145 158 174 173 176 175 168 167 156 151 140 128 106 80 66 53 40 32 29 23 20 15 10 6 3 359 357 354 349 346 343 340 336 334 332 330 328 326 325 323 323 320 314 304 292 282 276 273 271 271 270 269 268 266 267 266 266 266 267 267 267 268 270 271 272 272 271 269 268 268
89 116 93 110 37 73 152 136 151 138 178 234 211 125 102 90 137 147 129 129 143 136 138 156 163 158 166 168 179 179 174 175 175 169 168 161 161 155 148 129 78 56 39 30 25 21 18 15 10 7 3 1 358 355 352 347 344 339 335 331 327 324 321 319 317 316 314 312 310 309 307 303 297 288 281 276 273 273 272 271 269 268 266 266 266 265 265 264 265 266 267 268 268 268 268 268 266
89 99 76 83 56 109 145 138 135 129 205 225 144 136 106 88 146 146 130 147 143 147 158 172 184 216 183 174 172 173 172 174 174 170 170 166 169 167 156 131 67 49 31 23 20 17 16 12 7 5 1 359 356 354 351 347 343 339 337 332 327 323 318 315 311 309 308 306 304 303 301 299 297 294 290 284 279 276 274 273 272 270 267 265 264 263 263 263 263 263 263 264 264 264 265 267 267
94 88 64 71 128 155 164 162 167 162 215 222 172 166 125 89 147 134 137 149 141 150 162 169 188 184 169 164 160 166 170 172 173 171 174 177 179 181 181 163 35 27 19 15 15 13 12 7 5 3 1 0 358 355 352 350 348 345 342 338 334 329 324 319 314 310 307 305 304 302 301 299 297 295 293 291 286 283 279 276 273 271 269 267 264 262 262 262 262 262 260 259 259 261 262 266 268
92 105 77 102 169 163 175 181 188 158 171 198 189 184 161 149 157 142 128 128 128 133 136 138 152 153 157 157 156 164 169 172 175 180 188 196 200 209 221 237 314 345 5 8 9 8 6 4 4 4 3 3 1 359 357 355 353 349 347 344 341 337 333 328 321 318 314 310 308 305 304 302 301 299 298 296 292 290 287 284 281 277 274 270 266 263 261 261 261 262 260 257 256 257 259 263 265
88 105 84 212 203 193 212 182 178 149 159 186 180 176 179 181 166 155 146 131 130 120 117 129 137 142 152 157 160 168 170 175 182 193 204 209 214 223 230 250 333 343 354 358 1 2 3 3 3 3 3 3 1 360 359 357 355 352 350 346 344 342 339 336 331 326 322 318 314 312 310 308 306 304 302 301 298 294 291 288 287 284 281 277 272 266 261 260 261 261 260 257 255 255 256 258 262
107 95 80 236 213 200 244 184 176 179 173 179 176 165 178 182 171 167 165 162 162 156 153 151 152 154 159 163 166 172 173 180 187 197 208 207 209 209 201 201 3 360 359 358 2 3 4 5 4 3 2 1 360 359 358 356 355 354 351 349 347 345 343 341 339 336 332 328 323 319 316 314 311 309 307 305 302 298 294 290 288 286 285 283 280 273 266 261 260 260 259 257 256 255 255 255 259
326 114 141 211 182 164 203 181 178 187 176 185 183 153 157 178 182 178 159 152 237 215 188 185 183 173 168 169 171 176 179 184 188 195 200 196 194 178 153 91 41 17 12 6 6 7 7 8 6 5 3 1 360 359 358 356 355 354 351 350 349 347 347 345 344 342 339 336 333 328 324 320 316 313 311 309 308 305 301 297 292 289 287 286 285 282 276 270 265 263 262 260 259 258 258 257 259
348 91 137 167 155 163 190 172 174 185 180 185 178 160 163 174 189 188 173 169 228 221 206 199 196 184 174 173 174 178 184 188 190 191 189 184 174 149 108 73 42 20 13 7 8 9 10 9 6 5 2 1 0 358 358 356 354 352 350 350 350 350 350 350 348 346 345 342 339 335 331 326 322 317 314 312 311 310 308 305 301 296 292 289 288 286 283 279 274 271 268 266 266 264 263 260 261
350 351 78 154 167 181 182 176 182 185 180 179 180 189 175 162 191 197 191 202 239 228 207 192 188 184 175 174 176 180 185 188 187 182 180 173 162 145 102 69 31 17 10 8 10 10 9 8 5 3 1 359 359 357 355 354 351 350 349 349 350 351 351 351 350 350 349 347 344 341 337 333 329 324 320 315 312 310 310 309 307 304 299 294 291 289 287 284 281 278 273 271 270 269 268 264 263
73 312 53 153 211 200 183 186 189 190 186 186 188 200 187 173 187 197 200 220 249 215 191 183 179 176 175 177 177 182 184 184 183 177 176 172 163 152 121 73 31 19 12 11 11 9 6 5 3 0 359 357 355 354 352 351 349 348 348 348 348 348 349 349 349 349 349 348 347 345 341 338 334 330 326 321 316 312 309 308 307 307 305 300 296 292 289 286 284 282 278 273 271 269 269 268 265
87 278 310 133 214 220 200 200 193 194 189 179 179 196 209 199 188 190 206 225 224 190 181 177 174 174 178 180 180 182 182 180 180 177 176 175 166 153 135 82 38 24 15 13 9 7 5 2 1 359 357 355 353 352 351 349 348 348 347 347 347 347 347 347 347 347 347 347 346 345 343 340 337 334 330 326 321 316 311 308 305 304 304 303 300 296 293 289 285 283 281 277 272 269 267 268 269
359 274 312 320 274 288 214 209 201 196 187 165 169 237 262 201 188 206 209 210 197 183 179 175 175 177 179 182 183 183 183 181 180 179 177 172 162 152 134 82 48 32 17 12 8 5 3 1 359 357 355 354 353 351 350 348 347 347 346 346 346 346 345 345 345 344 344 344 343 344 342 340 338 335 332 329 325 320 315 309 305 303 301 301 300 298 295 292 288 284 282 281 277 272 267 267 269
316 305 311 302 294 304 242 221 215 200 196 185 183 268 280 163 172 241 198 185 181 175 173 175 179 181 181 185 185 184 186 184 180 178 174 167 156 143 124 91 60 43 22 10 7 3 2 0 358 356 355 353 352 350 349 347 346 346 346 346 345 345 344 343 343 342 342 342 342 342 341 340 339 337 334 331 328 325 320 315 309 304 300 298 297 295 294 292 291 288 285 282 280 278 272 268 267
320 326 314 301 316 312 261 231 216 196 201 204 180 301 265 148 205 239 193 179 179 177 174 178 183 184 184 186 185 184 185 181 178 175 170 166 158 143 123 102 78 47 19 6 4 2 360 359 357 355 352 351 349 347 347 345 345 345 344 344 344 343 342 341 341 340 341 341 341 341 341 341 340 338 336 332 329 326 323 319 314 309 304 300 296 292 291 290 290 289 286 283 281 279 276 272 269
327 5 332 310 349 340 287 265 212 194 203 192 148 339 249 207 235 234 193 181 179 181 179 180 184 186 187 186 185 183 182 181 177 175 172 169 165 155 138 109 70 24 6 1 359 358 358 356 354 352 349 348 346 345 345 344 344 343 343 342 341 340 338 337 337 338 338 338 339 340 340 339 339 338 335 331 329 326 323 320 316 312 308 304 299 293 287 287 288 288 287 285 282 279 277 274 271
333 36 32 328 356 341 304 15 193 189 207 181 140 294 254 228 237 219 187 183 177 180 183 184 186 187 188 186 185 183 183 184 181 178 178 177 177 170 154 120 32 4 355 354 354 355 355 354 351 348 347 345 344 344 343 342 342 341 340 340 339 338 336 335 334 334 335 335 336 338 338 338 338 337 334 331 328 326 323 319 316 313 311 308 305 299 289 283 284 287 289 287 285 282 280 277 275
360 10 42 16 360 293 293 343 160 167 229 185 149 263 261 250 250 208 187 188 183 183 187 187 189 189 189 187 186 187 186 186 186 183 183 187 187 178 160 52 5 351 348 348 351 353 352 351 349 346 346 345 343 343 342 341 340 340 338 338 337 336 334 333 332 332 333 334 334 334 334 334 334 335 334 333 329 326 322 318 315 312 310 308 307 305 296 286 282 284 289 290 287 285 283 280 278
26 358 318 344 347 274 303 294 187 182 236 169 153 249 269 270 263 206 190 192 189 189 191 191 192 192 191 191 190 192 189 186 187 188 191 195 194 186 202 311 341 342 345 347 349 351 350 349 347 346 345 343 342 342 341 340 339 339 337 336 335 333 332 332 332 333 333 333 332 331 331 330 330 331 332 333 331 326 321 316 313 310 308 306 304 304 300 292 286 283 285 290 290 287 286 283 280
3 44 250 280 274 292 318 307 227 197 177 190 186 245 271 282 283 195 189 193 194 194 195 195 197 196 194 195 195 194 191 187 188 193 198 198 197 200 228 287 328 338 340 342 345 346 347 347 345 346 344 341 341 340 340 339 338 336 334 333 332 331 331 332 333 333 333 333 331 330 329 329 329 330 331 333 331 327 322 316 312 309 306 302 299 297 295 293 291 287 285 287 291 290 287 286 284
323 11 255 251 246 263 300 306 318 91 158 239 229 239 258 266 81 176 192 195 197 199 202 202 200 199 198 198 198 197 195 194 195 199 201 200 201 209 235 276 312 328 331 335 340 343 346 346 345 345 342 339 340 340 339 337 335 332 331 331 331 332 332 333 334 333 333 332 331 330 329 330 331 331 332 332 331 328 324 318 313 310 306 302 298 293 290 287 287 289 288 286 288 290 289 287 287
248 280 283 288 263 229 245 270 306 57 208 246 229 248 262 269 253 191 200 199 202 208 209 207 204 202 202 201 201 202 201 202 203 204 203 203 206 217 237 263 292 313 323 330 338 343 345 345 345 344 340 339 340 339 337 334 332 331 331 331 332 333 332 332 333 332 332 331 330 330 330 331 331 332 333 333 332 330 326 322 317 313 310 306 300 292 287 285 285 288 290 287 286 288 289 287 287
209 233 227 264 272 258 238 237 265 304 273 261 237 243 264 273 268 216 204 203 207 215 215 212 210 206 205 205 205 205 206 207 207 206 205 206 211 221 237 255 281 303 317 328 338 342 344 345 345 342 340 340 339 336 334 333 332 332 332 332 332 333 331 329 329 330 329 329 329 330 331 332 332 332 334 335 335 332 328 324 320 317 315 311 304 294 285 283 286 288 288 288 286 286 286 286 288
189 208 223 242 243 271 266 242 280 244 220 264 243 236 261 268 272 251 210 206 212 218 219 217 212 209 208 207 207 207 209 210 206 205 206 209 214 222 236 249 273 298 313 328 337 341 343 345 343 341 341 339 338 336 336 336 335 334 334 334 333 332 330 327 327 329 328 329 330 331 331 332 332 333 334 336 336 334 330 326 322 318 316 313 307 297 285 278 280 285 286 286 286 286 285 285 288
191 204 242 266 222 257 275 273 305 283 183 266 248 229 259 263 271 266 207 196 215 216 215 218 214 212 212 210 209 209 209 207 203 204 207 210 213 221 234 245 265 290 311 327 335 340 341 342 341 341 341 339 338 337 337 336 335 334 334 333 331 329 329 328 328 330 330 330 331 331 332 332 333 333 334 335 335 334 332 328 323 319 316 313 307 301 292 280 276 280 285 287 286 284 284 284 287
176 176 218 276 237 263 290 301 331 354 169 268 272 246 261 265 270 267 217 198 222 220 217 220 215 211 212 212 210 209 207 204 202 204 207 208 213 220 230 241 260 285 309 325 332 336 337 340 341 340 340 338 337 336 335 335 333 332 330 328 327 326 327 326 327 329 329 330 331 332 332 332 333 332 332 333 332 333 332 328 323 318 315 311 306 303 299 290 282 280 282 285 286 285 282 281 283
184 177 191 264 264 279 284 298 335 327 235 265 287 273 259 260 265 268 240 219 230 230 226 225 221 216 216 215 214 211 207 203 202 204 205 206 210 218 228 238 258 285 306 321 329 334 337 340 340 339 338 336 335 334 333 332 330 328 326 324 324 323 324 324 325 326 328 328 329 330 331 331 330 330 331 332 332 331 330 327 323 317 312 308 303 299 297 295 290 286 284 284 285 284 280 278 280
242 202 203 242 259 231 231 284 334 321 299 306 321 299 261 241 250 266 264 228 238 238 230 228 226 224 222 219 217 214 209 206 205 203 203 205 209 217 225 234 256 282 300 320 330 334 338 341 340 338 336 334 333 333 331 330 327 324 322 321 321 321 321 322 322 323 325 326 326 327 328 329 329 329 330 331 331 330 329 326 321 315 307 302 299 295 289 285 286 287 287 286 284 282 279 278 278
296 230 210 227 245 248 260 325 353 347 325 346 12 327 275 246 250 261 277 251 249 239 226 229 227 223 222 220 218 214 210 210 210 207 205 206 210 216 223 233 254 277 297 320 331 335 338 339 339 336 333 332 332 332 330 328 325 323 323 323 323 323 322 323 324 324 324 325 325 326 327 328 328 328 328 329 329 329 328 324 317 310 304 299 297 295 287 279 278 280 282 284 282 279 279 277 275
304 246 200 206 213 236 286 356 14 311 272 292 58 328 272 275 247 257 263 264 259 240 224 232 227 220 219 220 219 213 210 210 210 208 207 207 210 215 221 231 250 273 299 322 331 334 336 337 336 333 332 332 331 330 329 326 324 323 323 323 322 323 322 322 323 324 324 324 324 325 326 327 327 326 326 327 328 328 327 323 317 310 304 301 298 295 290 279 274 274 275 278 278 277 276 274 272
247 230 140 127 122 148 178 112 205 238 277 288 173 169 271 273 239 257 270 266 269 259 241 238 226 221 221 221 219 214 212 210 207 205 204 206 211 214 220 231 248 273 302 322 329 332 333 333 334 332 331 331 329 328 327 325 324 323 322 321 320 321 321 320 321 321 322 323 322 323 324 325 325 325 325 325 326 327 325 323 320 313 306 302 296 292 290 283 275 271 269 270 271 271 272 271 270
243 207 123 105 109 139 154 134 243 280 11 291 229 149 263 275 238 273 343 251 266 264 248 239 223 222 222 219 218 216 213 210 207 205 203 206 211 215 221 231 250 274 302 319 326 329 329 330 331 332 330 329 328 327 326 324 323 322 321 320 319 320 320 319 319 320 321 322 322 322 323 323 323 323 323 324 326 326 324 322 319 313 304 297 292 288 287 283 276 270 268 266 264 263 266 270 269
216 144 101 63 71 81 84 107 169 39 14 266 245 153 223 275 220 164 42 237 252 258 252 243 226 223 221 217 217 216 212 208 206 206 206 210 212 216 221 230 250 272 299 316 323 326 326 327 329 331 330 328 327 326 324 323 322 322 321 320 320 320 320 319 319 319 321 321 321 321 322 322 323 323 323 323 325 325 323 320 317 311 304 297 294 291 287 283 277 269 265 263 262 261 261 265 267
122 92 52 17 29 49 43 61 77 50 266 259 240 177 188 276 245 177 193 216 221 236 252 250 229 221 216 216 217 214 209 206 204 206 208 211 213 215 221 230 246 268 296 313 320 323 324 326 327 329 330 328 326 325 324 323 323 322 321 321 321 321 321 320 320 320 321 322 321 321 321 322 322 323 323 323 324 324 321 318 315 312 307 301 296 292 286 284 281 271 264 260 259 261 261 262 264
97 72 47 7 334 14 18 358 49 70 253 264 244 180 187 240 246 211 233 241 222 221 241 242 219 210 210 214 216 212 207 204 202 204 206 207 210 213 218 228 241 263 294 310 315 319 322 324 326 328 329 327 325 325 324 323 323 322 321 321 321 321 321 321 320 321 322 322 321 321 321 321 322 322 322 322 322 323 320 317 314 311 307 301 295 290 286 286 283 274 265 259 258 259 260 261 263
91 88 73 46 333 354 344 307 47 227 246 257 118 139 216 243 244 242 251 257 248 231 232 243 227 208 209 213 214 210 205 203 202 203 204 205 209 212 217 226 238 260 291 304 311 316 320 323 325 327 327 326 325 324 323 323 322 322 321 321 321 321 321 321 320 320 321 322 321 321 321 321 322 322 321 321 321 321 319 316 313 309 306 301 296 293 291 288 284 276 265 259 259 259 258 261 264
149 146 125 130 104 350 280 269 268 268 266 238 122 113 263 271 258 233 232 242 251 251 244 249 244 223 219 219 214 208 204 203 203 203 205 206 209 212 217 224 236 260 287 300 309 315 318 321 323 325 326 325 324 324 323 322 322 322 321 321 321 321 320 320 321 321 321 321 321 320 320 321 321 321 320 320 320 320 318 315 311 308 305 302 298 294 292 289 283 275 266 260 258 257 256 259 263
176 161 136 151 151 179 238 240 242 282 299 252 164 142 237 257 251 222 229 246 261 272 258 251 249 238 232 224 212 206 203 201 203 204 205 208 209 211 216 223 237 260 283 297 307 314 317 319 322 324 326 326 325 324 323 322 321 322 321 321 321 321 321 320 320 321 320 320 320 319 319 320 320 319 319 319 318 318 316 313 310 306 303 301 298 294 291 288 281 272 265 260 255 253 254 256 258
198 132 115 176 180 173 212 229 210 293 319 275 203 210 227 234 260 228 231 270 277 282 265 248 239 231 222 214 207 204 202 200 201 204 205 206 207 210 217 223 237 260 280 296 306 313 315 318 321 325 326 326 325 324 323 322 322 322 321 321 321 321 321 321 320 321 320 320 319 319 319 319 319 319 318 318 317 316 315 312 309 307 304 300 297 293 289 286 280 270 263 258 254 253 255 255 255
164 139 184 218 179 137 151 273 333 65 296 274 248 259 273 315 286 228 179 260 268 278 268 237 222 214 206 207 205 202 201 199 201 203 203 203 205 210 216 223 239 260 281 296 306 312 314 318 322 325 326 325 325 324 323 323 322 322 321 321 322 322 322 322 321 321 321 320 319 319 319 318 319 319 318 317 317 316 314 310 308 307 304 300 296 291 287 284 280 271 264 260 255 252 253 254 255
131 178 216 200 132 103 111 272 336 42 254 270 276 273 280 293 284 274 109 251 252 245 246 234 217 206 205 209 206 202 200 199 200 201 201 203 207 212 216 225 244 262 282 296 305 310 314 320 323 325 326 325 325 324 323 323 322 322 322 322 323 323 323 322 322 321 321 320 319 320 319 319 319 319 318 317 316 314 312 310 307 307 304 299 294 291 287 283 280 272 264 259 256 253 253 253 254
131 191 227 133 151 183 111 152 240 216 240 269 280 286 275 242 239 274 231 223 237 234 219 220 215 208 211 211 205 201 199 198 199 199 201 204 208 211 217 228 245 263 283 296 304 310 316 321 322 324 325 325 325 324 323 323 323 322 323 324 325 324 324 323 322 322 321 320 320 321 320 320 321 320 319 317 315 313 311 309 307 307 305 300 294 291 287 283 280 272 264 259 255 253 253 252 253
89 279 322 27 176 178 163 168 191 181 218 266 292 311 283 252 206 230 230 214 220 218 205 212 214 212 213 208 201 199 197 197 198 199 200 204 207 212 220 231 246 265 285 296 303 311 317 321 322 323 324 324 324 324 323 323 323 324 324 325 325 325 325 324 323 322 321 320 322 322 322 322 321 321 319 317 315 313 311 310 308 307 306 301 296 292 288 283 280 270 261 258 255 253 253 251 251
168 220 233 230 190 139 227 217 167 174 216 254 274 288 279 270 171 203 226 211 207 204 201 211 216 216 215 207 202 200 198 198 199 199 201 204 208 214 221 232 247 265 284 295 304 312 318 320 321 322 324 324 324 324 324 323 324 325 325 325 326 326 326 324 323 323 322 322 323 324 324 323 321 321 319 316 315 312 310 308 304 305 305 301 296 293 289 283 278 270 261 255 253 251 251 250 250
180 198 201 201 188 154 248 253 217 192 223 230 173 262 275 274 144 198 217 194 198 201 200 208 215 217 214 209 207 203 199 199 199 200 203 205 209 215 221 232 247 266 284 297 305 312 318 320 321 322 324 325 325 325 325 325 326 327 326 327 327 327 326 325 324 323 322 324 325 325 325 324 321 321 319 316 314 310 309 307 300 301 305 303 300 296 292 286 278 272 265 257 254 251 251 251 250